Location: Barcelona
(41.3830°N, 2.1830°E)
Time: 06:41:13
(UTC+01:00)

ISS - Pass Details

Date: 28 November 2020
Orbit: 418 x 420 km, 51.6° (Epoch: 04 December)

Event Time Altitude Azimuth Distance (km) Brightness Sun altitude
Rises 18:09:29 0° 282° (WNW) 2,360 1.1 -8.7°
Reaches altitude 10° 18:12:05 10° 303° (WNW) 1,498 -0.4 -9.1°
Maximum altitude 18:14:25 17° 347° (NNW) 1,133 -1.6 -9.5°
Drops below altitude 10° 18:16:45 10° 31° (NNE) 1,499 -1.4 -10.0°
Enters shadow 18:16:53 - 33° (NNE) 1,536 -1.4 -10.0°
